Location: St. Louis
(38.6270°N, 90.1994°W)
Time: 04:33:31
(UTC-05:00)

RS-15 - Pass Details

Date: 04 February 2022
Orbit: 1881 x 2163 km, 64.8° (Epoch: 20 May)

Event Time Altitude Azimuth Distance (km) Brightness Sun altitude
Rises 19:57:50 0° 287° (WNW) 5,536 11.5 -29.9°
Reaches altitude 10° 20:02:49 10° 304° (NW) 4,583 10.6 -30.9°
Maximum altitude 20:11:00 20° 348° (NNW) 3,877 9.7 -32.4°
Drops below altitude 10° 20:19:22 10° 32° (NNE) 4,684 9.8 -34.1°
Enters shadow 20:19:26 10° 32° (NNE) 4,695 9.8 -34.1°
